Regional Weather Roundup
Issued by NWS

Home | Current Version | Previous Version | Text Only | Print | Product List | Glossary Off
Versions: 1 2 3 4 5 6 7 8 9 10 11 12 13 14 15 16 17 18 19 20 21 22 23 24 25 26 27 28 29 30 31 32 33 34 35 36 37 38 39 40 41 42 43 44 45 46 47 48 49 50

000
ASUS43 KOAX 291202
RWRNE

WEATHER ROUNDUP FOR NEBRASKA
NATIONAL WEATHER SERVICE OMAHA NE
700 AM CDT SAT AUG 29 2015

NOTES: SATELLITE DATA IS BEING USED TO AUGMENT CLOUD COVER ABOVE
       12000 FEET.
       "FAIR" INDICATES FEW OR NO CLOUDS BELOW 12,000 FEET WITH NO
       SIGNIFICANT WEATHER AND/OR OBSTRUCTIONS TO VISIBILITY.

  * THESE STATIONS DO NOT REPORT WEATHER SUCH AS RAIN...SNOW OR FOG.

NEZ001>004-019>022-054>056-291300-
NEBRASKA PANHANDLE

CITY           SKY/WX    TMP DP  RH WIND       PRES   REMARKS
SCOTTSBLUFF    CLEAR     53  49  86 E3        30.17S
6HR MIN TEMP:  52; 6HR MAX TEMP:  62;

ALLIANCE       CLEAR     48  44  86 CALM      30.15F
6HR MIN TEMP:  47; 6HR MAX TEMP:  56;

CHADRON        CLEAR     52  46  80 CALM      30.08F
6HR MIN TEMP:  51; 6HR MAX TEMP:  58;

KIMBALL        CLEAR     49  43  79 W7        30.21F
SIDNEY         CLEAR     48  43  82 W7        30.20S
6HR MIN TEMP:  48; 6HR MAX TEMP:  55;

$$

NEZ057>060-069>072-079>082-291300-
SOUTHWEST NEBRASKA

CITY           SKY/WX    TMP DP  RH WIND       PRES   REMARKS
NORTH PLATTE   MOCLDY    51  50  96 NW3       30.13R FOG
6HR MIN TEMP:  50; 6HR MAX TEMP:  57;

IMPERIAL       CLEAR     60  56  86 W8        30.15S
6HR MIN TEMP:  57; 6HR MAX TEMP:  62;

MCCOOK         CLEAR     55  54  96 W7        30.12S
6HR MIN TEMP:  54; 6HR MAX TEMP:  65;

OGALLALA       CLEAR     53  52  98 W3        30.15S
$$

NEZ005>010-023>029-035>040-094-291300-
NORTH CENTRAL NEBRASKA

CITY           SKY/WX    TMP DP  RH WIND       PRES   REMARKS
VALENTINE      PTCLDY    54  53  97 SW7       30.07R
6HR MIN TEMP:  54; 6HR MAX TEMP:  61;

AINSWORTH      CLEAR     60  59  97 SW3       30.08S
BROKEN BOW     CLEAR     62  58  86 CALM      30.10R
6HR MIN TEMP:  55; 6HR MAX TEMP:  63;

O`NEILL        PTCLDY    55  55  99 CALM      30.08R FOG
ORD            FOG       53  53 100 CALM      30.08R VSB 3/4
6HR MIN TEMP:  53; 6HR MAX TEMP:  58;

$$

NEZ041-046>049-061>064-073>077-083>087-291300-
SOUTH CENTRAL NEBRASKA

CITY           SKY/WX    TMP DP  RH WIND       PRES   REMARKS
GRAND ISLAND   FOG       58  58 100 N6        30.10R VSB 1/4
6HR MIN TEMP:  55; 6HR MAX TEMP:  62;

AURORA         FOG       59  59 100 N5        30.09R VSB 1/2
HASTINGS       FOG       60  59  96 NW3       30.09R VSB 1/4
6HR MIN TEMP:  55; 6HR MAX TEMP:  62;

HEBRON         CLOUDY    61  58  90 N7        30.06R
HOLDREGE         N/A     54  53  96 CALM      30.10R FOG
KEARNEY *      CLEAR     55  52  88 NW7       30.10R
YORK           CLOUDY    59  59 100 N3        30.08R
$$

NEZ011>018-030>034-042>045-291300-
NORTHEAST NEBRASKA

CITY           SKY/WX    TMP DP  RH WIND       PRES   REMARKS
NORFOLK        CLOUDY    59  57  93 CALM      30.06S
6HR MIN TEMP:  58; 6HR MAX TEMP:  60;

BLAIR          CLOUDY    60  58  94 N5        30.04R FOG
COLUMBUS *     CLOUDY    59  54  82 NE5       30.08R
FREMONT        CLOUDY    62  59  90 N5        30.06R
TEKAMAH        CLOUDY    62  59  90 N8        30.05R
6HR MIN TEMP:  62; 6HR MAX TEMP:  62;

WAYNE          CLOUDY    59  57  95 N3        30.07R
$$

NEZ050>053-065>068-078-088>093-291300-
SOUTHEAST NEBRASKA

CITY           SKY/WX    TMP DP  RH WIND       PRES   REMARKS
LINCOLN        DRIZZLE   62  61  96 N8        30.06R
6HR MIN TEMP:  61; 6HR MAX TEMP:  65; 6HR PCP: TRACE;

OMAHA EPPLEY   DRIZZLE   61  60  97 N8        30.04R
6HR MIN TEMP:  61; 6HR MAX TEMP:  64; 6HR PCP: TRACE;

BEATRICE       CLOUDY    62  61  96 N8        30.05R
FALLS CITY     CLOUDY    64  63  96 N8        30.00R FOG
6HR MIN TEMP:  64; 6HR MAX TEMP:  67;

PLATTSMOUTH    CLOUDY    61  60  94 N6        30.04R FOG
$$

NEZ044-045-051>053-067-291300-
OMAHA AREA

CITY           SKY/WX    TMP DP  RH WIND       PRES   REMARKS
OMAHA EPPLEY   DRIZZLE   61  60  97 N8        30.04R
6HR MIN TEMP:  61; 6HR MAX TEMP:  64; 6HR PCP: TRACE;

BLAIR          CLOUDY    60  58  94 N5        30.04R FOG
FREMONT        CLOUDY    62  59  90 N5        30.06R
MILLARD        CLOUDY    62  60  92 CALM      30.04R
OFFUTT AFB     CLOUDY    63  59  88 N6        30.03R FOG
PLATTSMOUTH    CLOUDY    61  60  94 N6        30.04R FOG
WAHOO          CLOUDY    61  59  94 N7        30.06R
$$




USA.gov is the U.S. government's official web portal to all federal, state and local government web resources and services.